Time,TemperatureF,DewpointF,PressureIn,WindDirection,WindDirectionDegrees,WindSpeedMPH,WindSpeedGustMPH,Humidity,HourlyPrecipIn,Conditions,Clouds,dailyrainin,SoftwareType,DateUTC
2013-01-12 00:11:00,35.8,35.0,30.21,North,4,1.0,2.0,98,0.01,,,0.00,weatherlink.com 1.10,2013-01-12 05:11:00,
2013-01-12 00:26:00,35.7,35.0,30.20,North,4,0.0,0.0,98,0.02,,,0.01,weatherlink.com 1.10,2013-01-12 05:26:00,
2013-01-12 00:41:00,35.7,35.0,30.19,North,4,0.0,1.0,98,0.02,,,0.01,weatherlink.com 1.10,2013-01-12 05:41:00,
2013-01-12 00:56:00,35.9,35.0,30.18,North,4,0.0,1.0,98,0.01,,,0.01,weatherlink.com 1.10,2013-01-12 05:56:00,
2013-01-12 01:11:00,36.0,36.0,30.18,NNW,336,0.0,1.0,98,0.01,,,0.01,weatherlink.com 1.10,2013-01-12 06:11:00,
2013-01-12 01:26:00,36.2,36.0,30.18,NNW,336,0.0,1.0,98,0.00,,,0.01,weatherlink.com 1.10,2013-01-12 06:26:00,
2013-01-12 01:41:00,36.3,36.0,30.17,NNW,336,0.0,1.0,98,0.00,,,0.01,weatherlink.com 1.10,2013-01-12 06:41:00,
2013-01-12 01:56:00,36.3,36.0,30.16,NNW,336,0.0,0.0,98,0.00,,,0.01,weatherlink.com 1.10,2013-01-12 06:56:00,
2013-01-12 02:11:00,36.4,36.0,30.17,NNW,336,0.0,1.0,98,0.00,,,0.01,weatherlink.com 1.10,2013-01-12 07:11:00,
2013-01-12 02:26:00,36.6,36.0,30.17,NNW,336,0.0,0.0,98,0.00,,,0.01,weatherlink.com 1.10,2013-01-12 07:26:00,
2013-01-12 02:41:00,36.6,36.0,30.17,NNW,336,0.0,0.0,99,0.00,,,0.01,weatherlink.com 1.10,2013-01-12 07:41:00,
2013-01-12 02:56:00,36.7,37.0,30.16,NNW,336,0.0,0.0,99,0.00,,,0.01,weatherlink.com 1.10,2013-01-12 07:56:00,
2013-01-12 03:11:00,36.8,37.0,30.15,NNW,336,0.0,0.0,99,0.00,,,0.01,weatherlink.com 1.10,2013-01-12 08:11:00,
2013-01-12 03:26:00,36.7,36.0,30.14,NNW,336,0.0,0.0,98,0.00,,,0.01,weatherlink.com 1.10,2013-01-12 08:26:00,
2013-01-12 03:41:00,36.8,37.0,30.14,NNW,336,0.0,0.0,99,0.00,,,0.01,weatherlink.com 1.10,2013-01-12 08:41:00,
2013-01-12 03:56:00,36.9,37.0,30.15,NNW,336,0.0,0.0,99,0.00,,,0.01,weatherlink.com 1.10,2013-01-12 08:56:00,
2013-01-12 04:11:00,37.1,37.0,30.14,NNW,336,0.0,0.0,99,0.00,,,0.01,weatherlink.com 1.10,2013-01-12 09:11:00,
2013-01-12 04:26:00,37.0,37.0,30.14,NNW,336,0.0,0.0,99,0.00,,,0.01,weatherlink.com 1.10,2013-01-12 09:26:00,
2013-01-12 04:41:00,36.8,37.0,30.14,NNW,336,0.0,0.0,99,0.00,,,0.01,weatherlink.com 1.10,2013-01-12 09:41:00,
2013-01-12 04:56:00,36.6,36.0,30.14,NNW,336,0.0,0.0,98,0.00,,,0.01,weatherlink.com 1.10,2013-01-12 09:56:00,
2013-01-12 05:11:00,36.7,37.0,30.15,NNW,336,0.0,0.0,99,0.00,,,0.01,weatherlink.com 1.10,2013-01-12 10:11:00,
2013-01-12 05:26:00,36.7,37.0,30.16,NNW,335,0.0,0.0,99,0.00,,,0.01,weatherlink.com 1.10,2013-01-12 10:26:00,
2013-01-12 05:41:00,36.4,36.0,30.15,NNW,336,0.0,0.0,99,0.00,,,0.01,weatherlink.com 1.10,2013-01-12 10:41:00,
2013-01-12 05:56:00,36.1,36.0,30.14,NNW,336,0.0,0.0,98,0.01,,,0.02,weatherlink.com 1.10,2013-01-12 10:56:00,
2013-01-12 06:26:00,36.1,36.0,30.14,NNW,336,0.0,0.0,99,0.01,,,0.02,weatherlink.com 1.10,2013-01-12 11:26:00,
2013-01-12 06:41:00,36.4,36.0,30.14,NNW,336,0.0,0.0,99,0.01,,,0.02,weatherlink.com 1.10,2013-01-12 11:41:00,
2013-01-12 06:56:00,36.2,36.0,30.15,NNW,336,0.0,0.0,99,0.00,,,0.02,weatherlink.com 1.10,2013-01-12 11:56:00,
2013-01-12 07:11:00,36.2,36.0,30.16,NNW,336,0.0,0.0,99,0.00,,,0.02,weatherlink.com 1.10,2013-01-12 12:11:00,
2013-01-12 07:26:00,36.1,36.0,30.17,NNW,336,0.0,0.0,99,0.00,,,0.02,weatherlink.com 1.10,2013-01-12 12:26:00,
2013-01-12 07:42:00,36.5,36.0,30.17,NNW,336,0.0,0.0,99,0.00,,,0.02,weatherlink.com 1.10,2013-01-12 12:42:00,
2013-01-12 07:56:00,36.4,36.0,30.18,NNW,336,0.0,0.0,99,0.00,,,0.02,weatherlink.com 1.10,2013-01-12 12:56:00,
2013-01-12 08:11:00,36.6,36.0,30.17,NNW,336,0.0,0.0,99,0.00,,,0.02,weatherlink.com 1.10,2013-01-12 13:11:00,
2013-01-12 08:26:00,36.7,37.0,30.16,NNW,336,0.0,0.0,99,0.00,,,0.02,weatherlink.com 1.10,2013-01-12 13:26:00,
2013-01-12 08:41:00,37.1,37.0,30.17,NNW,336,0.0,0.0,99,0.00,,,0.02,weatherlink.com 1.10,2013-01-12 13:41:00,
2013-01-12 08:56:00,37.5,37.0,30.17,NNW,337,0.0,0.0,99,0.00,,,0.02,weatherlink.com 1.10,2013-01-12 13:56:00,
2013-01-12 09:11:00,38.0,38.0,30.17,NNW,338,0.0,0.0,99,0.00,,,0.02,weatherlink.com 1.10,2013-01-12 14:11:00,
2013-01-12 09:26:00,38.5,38.0,30.17,NNW,338,0.0,0.0,99,0.00,,,0.02,weatherlink.com 1.10,2013-01-12 14:26:00,
2013-01-12 09:41:00,38.9,39.0,30.18,NNW,338,0.0,1.0,99,0.00,,,0.02,weatherlink.com 1.10,2013-01-12 14:41:00,
2013-01-12 09:56:00,39.0,39.0,30.18,NNW,338,0.0,1.0,99,0.00,,,0.02,weatherlink.com 1.10,2013-01-12 14:56:00,
2013-01-12 10:11:00,39.2,39.0,30.17,NNW,337,0.0,1.0,99,0.00,,,0.02,weatherlink.com 1.10,2013-01-12 15:11:00,
2013-01-12 10:26:00,39.4,39.0,30.17,NNW,337,0.0,1.0,99,0.00,,,0.02,weatherlink.com 1.10,2013-01-12 15:26:00,
2013-01-12 10:41:00,39.5,39.0,30.17,NE,55,0.0,1.0,99,0.00,,,0.02,weatherlink.com 1.10,2013-01-12 15:41:00,
2013-01-12 10:56:00,39.7,40.0,30.17,East,86,1.0,1.0,99,0.00,,,0.02,weatherlink.com 1.10,2013-01-12 15:56:00,
2013-01-12 11:11:00,39.9,40.0,30.15,SSE,160,0.0,2.0,99,0.00,,,0.02,weatherlink.com 1.10,2013-01-12 16:11:00,
2013-01-12 11:26:00,40.0,40.0,30.15,ESE,123,0.0,1.0,99,0.00,,,0.02,weatherlink.com 1.10,2013-01-12 16:26:00,
2013-01-12 11:41:00,40.2,40.0,30.13,ESE,106,0.0,2.0,99,0.00,,,0.02,weatherlink.com 1.10,2013-01-12 16:41:00,
2013-01-12 11:56:00,40.3,40.0,30.12,ESE,103,1.0,2.0,99,0.00,,,0.02,weatherlink.com 1.10,2013-01-12 16:56:00,
2013-01-12 12:12:00,40.5,40.0,30.12,NNW,330,0.0,1.0,99,0.00,,,0.02,weatherlink.com 1.10,2013-01-12 17:12:00,
2013-01-12 12:27:00,40.5,40.0,30.11,NNW,330,0.0,0.0,99,0.00,,,0.02,weatherlink.com 1.10,2013-01-12 17:27:00,
2013-01-12 12:42:00,40.7,41.0,30.10,NE,54,0.0,1.0,99,0.00,,,0.02,weatherlink.com 1.10,2013-01-12 17:42:00,
2013-01-12 12:57:00,41.2,41.0,30.11,ENE,68,0.0,1.0,99,0.00,,,0.02,weatherlink.com 1.10,2013-01-12 17:57:00,
2013-01-12 13:12:00,41.3,41.0,30.13,ENE,63,0.0,1.0,99,0.00,,,0.02,weatherlink.com 1.10,2013-01-12 18:12:00,
2013-01-12 13:27:00,41.4,41.0,30.13,ESE,116,0.0,1.0,99,0.00,,,0.02,weatherlink.com 1.10,2013-01-12 18:27:00,
2013-01-12 13:42:00,41.3,41.0,30.14,ESE,115,0.0,1.0,99,0.00,,,0.02,weatherlink.com 1.10,2013-01-12 18:42:00,
2013-01-12 13:57:00,41.5,41.0,30.14,ESE,114,0.0,1.0,99,0.00,,,0.02,weatherlink.com 1.10,2013-01-12 18:57:00,
2013-01-12 14:12:00,41.5,41.0,30.13,ESE,117,0.0,0.0,99,0.00,,,0.02,weatherlink.com 1.10,2013-01-12 19:12:00,
2013-01-12 14:27:00,41.6,41.0,30.14,ESE,117,0.0,0.0,99,0.00,,,0.02,weatherlink.com 1.10,2013-01-12 19:27:00,
2013-01-12 14:42:00,41.7,42.0,30.14,ESE,117,0.0,0.0,99,0.00,,,0.02,weatherlink.com 1.10,2013-01-12 19:42:00,
2013-01-12 14:57:00,41.7,42.0,30.14,ESE,117,0.0,0.0,99,0.00,,,0.02,weatherlink.com 1.10,2013-01-12 19:57:00,
2013-01-12 15:12:00,41.8,42.0,30.14,ESE,117,0.0,0.0,99,0.00,,,0.02,weatherlink.com 1.10,2013-01-12 20:12:00,
2013-01-12 15:27:00,41.8,42.0,30.14,ESE,117,0.0,0.0,99,0.00,,,0.02,weatherlink.com 1.10,2013-01-12 20:27:00,
2013-01-12 15:42:00,41.7,42.0,30.14,ESE,117,0.0,0.0,99,0.00,,,0.02,weatherlink.com 1.10,2013-01-12 20:42:00,
2013-01-12 15:57:00,41.6,41.0,30.14,ESE,117,0.0,0.0,99,0.00,,,0.02,weatherlink.com 1.10,2013-01-12 20:57:00,
2013-01-12 16:12:00,41.4,41.0,30.14,ESE,117,0.0,0.0,99,0.00,,,0.02,weatherlink.com 1.10,2013-01-12 21:12:00,
2013-01-12 16:27:00,41.3,41.0,30.14,ESE,117,0.0,0.0,99,0.00,,,0.02,weatherlink.com 1.10,2013-01-12 21:27:00,
2013-01-12 16:42:00,41.2,41.0,30.13,ESE,117,0.0,0.0,99,0.00,,,0.02,weatherlink.com 1.10,2013-01-12 21:42:00,
2013-01-12 16:57:00,41.0,41.0,30.13,ESE,117,0.0,0.0,99,0.00,,,0.02,weatherlink.com 1.10,2013-01-12 21:57:00,
2013-01-12 17:12:00,40.6,40.0,30.14,ESE,117,0.0,0.0,99,0.00,,,0.02,weatherlink.com 1.10,2013-01-12 22:12:00,
2013-01-12 17:27:00,40.5,40.0,30.14,ESE,117,0.0,0.0,99,0.00,,,0.02,weatherlink.com 1.10,2013-01-12 22:27:00,
2013-01-12 17:57:00,40.4,40.0,30.15,ESE,117,0.0,0.0,99,0.01,,,0.03,weatherlink.com 1.10,2013-01-12 22:57:00,
2013-01-12 18:12:00,40.1,40.0,30.14,ESE,117,0.0,0.0,99,0.01,,,0.03,weatherlink.com 1.10,2013-01-12 23:12:00,
2013-01-12 18:27:00,39.8,40.0,30.14,ESE,117,0.0,0.0,99,0.01,,,0.03,weatherlink.com 1.10,2013-01-12 23:27:00,
2013-01-12 18:42:00,39.6,39.0,30.12,ESE,117,0.0,0.0,99,0.00,,,0.03,weatherlink.com 1.10,2013-01-12 23:42:00,
2013-01-12 18:57:00,39.5,39.0,30.12,ESE,117,0.0,0.0,99,0.00,,,0.03,weatherlink.com 1.10,2013-01-12 23:57:00,
2013-01-12 19:12:00,39.3,39.0,30.13,ESE,117,0.0,0.0,99,0.00,,,0.03,weatherlink.com 1.10,2013-01-13 00:12:00,
2013-01-12 19:27:00,39.3,39.0,30.12,ESE,117,0.0,0.0,99,0.00,,,0.03,weatherlink.com 1.10,2013-01-13 00:27:00,
2013-01-12 19:42:00,39.5,39.0,30.12,ESE,117,0.0,0.0,99,0.00,,,0.03,weatherlink.com 1.10,2013-01-13 00:42:00,
2013-01-12 19:57:00,39.7,40.0,30.12,ESE,117,0.0,0.0,99,0.00,,,0.03,weatherlink.com 1.10,2013-01-13 00:57:00,
2013-01-12 20:12:00,39.7,40.0,30.12,ESE,117,0.0,0.0,99,0.00,,,0.03,weatherlink.com 1.10,2013-01-13 01:12:00,
2013-01-12 20:27:00,39.4,39.0,30.13,ESE,117,0.0,0.0,99,0.00,,,0.03,weatherlink.com 1.10,2013-01-13 01:27:00,
2013-01-12 20:42:00,39.7,40.0,30.13,ESE,117,0.0,0.0,99,0.00,,,0.03,weatherlink.com 1.10,2013-01-13 01:42:00,
2013-01-12 20:57:00,39.6,39.0,30.13,ESE,117,0.0,0.0,99,0.00,,,0.03,weatherlink.com 1.10,2013-01-13 01:57:00,
2013-01-12 21:12:00,39.5,39.0,30.12,ESE,117,0.0,0.0,99,0.00,,,0.03,weatherlink.com 1.10,2013-01-13 02:12:00,
2013-01-12 21:27:00,39.3,39.0,30.11,ESE,117,0.0,0.0,99,0.00,,,0.03,weatherlink.com 1.10,2013-01-13 02:27:00,
2013-01-12 21:42:00,39.4,39.0,30.12,ESE,117,0.0,0.0,99,0.00,,,0.03,weatherlink.com 1.10,2013-01-13 02:42:00,
2013-01-12 21:57:00,39.5,39.0,30.12,ESE,117,0.0,0.0,99,0.00,,,0.03,weatherlink.com 1.10,2013-01-13 02:57:00,
2013-01-12 22:12:00,39.5,39.0,30.11,ESE,117,0.0,0.0,99,0.00,,,0.03,weatherlink.com 1.10,2013-01-13 03:12:00,
2013-01-12 22:27:00,39.2,39.0,30.11,ESE,117,0.0,0.0,99,0.00,,,0.03,weatherlink.com 1.10,2013-01-13 03:27:00,
2013-01-12 22:42:00,39.3,39.0,30.11,ESE,117,0.0,0.0,99,0.00,,,0.03,weatherlink.com 1.10,2013-01-13 03:42:00,
2013-01-12 22:57:00,39.3,39.0,30.10,ESE,117,0.0,0.0,99,0.00,,,0.03,weatherlink.com 1.10,2013-01-13 03:57:00,
2013-01-12 23:12:00,40.1,40.0,30.11,ESE,117,0.0,0.0,100,0.00,,,0.03,weatherlink.com 1.10,2013-01-13 04:12:00,
2013-01-12 23:27:00,39.7,40.0,30.12,ESE,117,0.0,0.0,100,0.00,,,0.03,weatherlink.com 1.10,2013-01-13 04:27:00,
2013-01-12 23:42:00,39.6,39.0,30.12,ESE,117,0.0,0.0,99,0.00,,,0.03,weatherlink.com 1.10,2013-01-13 04:42:00,
2013-01-12 23:57:00,39.5,39.0,30.11,ESE,117,0.0,0.0,99,0.00,,,0.03,weatherlink.com 1.10,2013-01-13 04:57:00,